Dewpoint
55 51 45 42 39 33 32 33 21 29 30 28 27 27 21 29 34 31 30 30 26 27 26 32 25 25 28 27 32 34 37 45 45 44 43 47 58 66 65 64 66 67 67 68 70 72 72 72 72 72 71 72 70 71 70 71 70 70 70 70 70 70 71 71 70 70 70 70 71 71 71 71 71 70 70 69 69 69 69 69 69 69 69 69 68 68 68 68 68 67 68 67 67 65 64 63 62
52 42 40 37 33 32 31 34 28 29 28 23 25 28 27 28 25 28 29 30 28 25 27 44 46 45 50 48 45 43 44 50 44 50 55 59 64 65 65 66 67 67 67 69 70 72 72 72 72 72 71 71 70 70 69 71 70 70 70 70 70 70 70 70 70 70 70 70 70 70 70 70 70 70 70 69 69 69 69 69 69 69 69 68 68 68 67 66 66 66 66 67 66 65 64 63 62
44 39 34 33 26 35 33 29 21 25 24 20 20 25 26 23 23 24 29 30 28 27 26 25 28 30 35 30 31 37 39 55 56 58 59 62 62 63 65 67 66 67 68 69 71 72 72 72 72 72 72 72 71 70 70 70 71 71 70 70 70 70 70 70 70 70 70 70 70 70 70 70 70 70 70 69 69 70 70 70 69 69 68 68 67 67 66 65 66 65 66 66 66 65 64 63 62
41 45 36 28 22 34 28 27 25 27 23 21 20 22 25 23 22 24 25 27 26 25 26 26 29 30 31 28 28 49 49 51 56 60 60 62 61 64 66 67 67 67 68 70 71 72 72 72 72 72 72 72 71 70 70 69 71 70 70 70 70 70 70 70 69 69 70 70 70 70 70 70 70 70 69 69 69 70 70 69 69 68 68 67 67 67 66 65 64 66 67 66 66 65 64 64 62
35 47 35 31 28 27 30 28 26 26 17 24 18 22 27 25 22 22 22 24 24 24 27 29 32 37 35 38 47 33 36 52 53 59 58 60 62 65 66 67 66 67 68 70 71 71 72 72 72 71 72 72 72 72 71 71 71 71 70 70 70 70 70 69 69 69 69 70 70 69 69 70 69 69 69 69 69 69 69 70 70 69 68 67 66 65 66 66 66 67 67 66 65 64 64 63 62
37 35 40 32 19 30 24 22 23 23 19 23 19 18 20 25 24 23 23 24 26 23 26 32 32 38 40 48 48 47 47 43 51 59 59 61 63 65 67 67 66 67 68 70 71 71 71 72 71 71 72 72 72 72 72 72 71 71 71 70 70 70 69 69 69 69 69 70 69 69 68 68 69 69 68 69 69 69 69 69 69 69 69 67 65 64 65 64 67 68 67 66 66 65 63 62 61
31 24 26 23 26 31 21 23 21 22 21 23 21 20 19 21 23 24 24 25 26 26 26 27 38 36 36 45 50 53 54 58 58 59 62 62 64 65 67 67 66 66 68 70 71 71 71 71 71 71 71 72 71 72 72 71 71 71 71 71 70 70 70 70 70 69 69 69 69 69 68 68 67 68 68 66 68 68 68 69 68 67 68 68 69 65 64 64 67 68 66 66 65 64 63 62 61
45 21 26 18 21 20 19 21 20 24 23 23 22 19 19 20 24 25 24 24 24 23 24 25 27 33 30 47 43 47 54 56 59 59 62 63 64 65 67 67 66 67 68 69 70 70 71 71 71 71 71 72 71 72 72 72 71 71 71 71 71 71 71 70 70 70 70 70 70 69 69 68 68 67 68 67 67 66 67 67 68 66 67 67 68 65 64 64 65 64 62 62 62 63 64 64 64
33 25 33 23 15 22 17 16 16 21 22 20 19 23 37 24 25 24 24 26 24 23 24 26 28 29 21 44 44 46 52 55 59 61 62 63 64 66 67 67 67 67 68 69 70 70 70 70 70 71 71 71 72 72 72 72 71 71 71 71 71 71 71 70 70 70 70 70 70 69 69 69 68 68 68 67 66 66 66 65 66 66 66 67 66 65 65 65 64 62 62 62 62 64 65 66 66
28 20 13 19 26 11 17 16 15 16 18 19 19 20 20 24 23 24 23 20 23 23 23 24 22 19 27 41 41 44 52 56 61 61 62 63 64 66 66 67 67 67 67 69 70 70 70 72 70 70 71 71 71 71 72 72 72 72 71 72 72 71 71 71 70 70 70 70 70 70 69 69 69 69 68 68 68 67 66 66 65 65 65 67 66 65 66 66 65 63 62 62 62 63 65 66 66
19 26 30 18 15 9 10 6 12 16 15 14 13 15 18 23 23 23 23 22 19 22 22 23 23 19 37 37 45 48 51 57 60 60 62 63 64 65 66 66 67 67 67 68 69 69 70 71 71 70 70 70 71 71 71 72 72 72 72 72 71 72 71 71 71 71 71 70 70 70 70 69 69 69 69 69 69 68 69 67 66 65 65 66 66 66 65 66 66 65 62 62 62 63 66 66 66
15 20 21 12 11 8 10 6 4 9 13 13 10 11 18 17 23 18 18 20 20 19 20 22 24 27 33 25 29 44 48 58 60 61 62 63 64 64 65 65 66 67 67 68 69 69 69 70 71 71 70 69 70 70 70 71 71 72 72 72 72 72 72 71 71 71 71 70 70 70 70 70 69 70 70 69 68 68 69 68 68 66 65 66 64 67 66 67 67 66 64 63 62 66 67 67 66
20 28 20 12 10 8 10 7 6 14 13 9 11 11 14 16 16 16 16 18 18 19 17 21 23 28 23 24 31 45 50 56 60 61 62 63 63 64 64 64 65 66 67 67 68 68 69 70 71 71 70 69 69 69 69 70 71 71 71 71 71 72 72 71 71 71 71 71 71 70 70 70 70 70 70 69 68 68 68 68 68 68 65 66 67 68 67 67 66 66 65 63 64 67 67 66 67
21 25 17 10 17 9 6 8 16 3 4 14 13 11 13 12 14 15 15 14 14 17 17 22 21 25 21 28 27 44 49 55 60 60 62 62 62 63 63 63 64 65 66 67 67 67 68 69 70 71 70 70 70 69 69 69 70 71 70 71 71 71 71 71 71 71 71 71 70 70 70 70 70 70 69 69 68 67 67 67 67 68 66 66 69 69 68 67 66 66 65 65 66 67 66 67 67
19 32 18 19 12 13 11 4 3 6 3 9 6 10 9 20 13 14 12 11 10 16 18 22 24 18 19 24 20 32 46 55 58 59 60 61 61 61 61 62 63 63 65 66 66 67 68 69 70 71 71 70 70 70 71 70 69 69 69 70 70 70 70 70 69 69 70 70 69 69 69 70 69 69 69 68 67 67 67 67 66 66 67 68 69 69 68 67 66 66 66 66 67 67 67 67 67
28 22 24 16 8 9 11 6 8 8 6 8 7 10 8 7 14 11 12 10 9 16 17 13 20 17 18 24 21 25 32 55 56 59 60 60 59 60 60 60 62 63 64 65 65 66 67 69 70 70 71 71 71 71 71 71 69 68 68 69 69 69 69 69 68 68 68 68 68 68 68 69 69 68 68 68 66 66 66 65 66 66 67 68 70 69 69 68 67 67 67 67 67 67 67 67 68
37 31 16 13 6 9 15 7 9 7 12 10 10 9 7 6 11 15 18 18 11 12 17 18 18 23 20 26 29 43 47 54 57 58 59 58 59 58 58 59 60 62 64 64 65 65 66 68 69 70 70 70 71 71 71 71 70 68 68 68 68 68 68 68 67 66 66 66 66 66 67 68 68 68 68 66 66 65 65 64 65 65 66 68 69 69 69 68 68 68 68 68 68 67 68 68 67
30 19 13 10 7 8 12 7 9 16 8 7 10 8 6 6 10 10 15 14 14 14 14 15 15 20 23 23 44 46 48 53 57 59 58 58 58 58 58 58 59 63 63 64 64 65 66 67 68 69 69 70 70 70 71 71 71 69 70 70 70 69 68 67 68 69 69 68 65 67 68 68 68 67 67 67 66 65 64 63 64 64 65 66 68 69 68 68 68 68 69 68 68 68 67 65 65
21 20 14 7 10 9 11 10 12 10 9 8 6 7 6 7 6 10 12 13 12 12 13 15 14 14 17 30 45 48 49 51 56 58 57 57 58 59 60 59 59 60 63 64 65 64 65 66 68 69 69 69 70 70 70 71 71 70 70 70 70 68 70 69 69 69 69 69 68 68 68 68 68 67 67 66 66 63 64 62 63 63 64 66 67 68 68 67 68 68 69 69 68 67 65 63 63
20 16 8 7 17 14 10 9 19 9 11 8 8 12 6 6 6 16 10 8 13 11 12 14 12 15 18 27 44 46 49 51 54 57 57 57 58 59 59 58 58 60 62 64 65 65 65 66 68 68 69 69 69 70 70 70 71 70 70 70 70 70 70 70 70 70 70 70 69 69 69 69 68 68 68 67 66 65 64 62 62 62 63 64 66 67 67 67 67 68 68 67 67 66 63 62 63
26 15 8 10 12 10 12 9 11 15 8 8 8 14 8 7 7 14 12 9 14 11 12 12 14 15 20 26 41 45 49 50 51 54 56 56 57 57 59 60 60 61 61 62 64 65 65 66 67 68 68 69 69 69 69 70 70 70 70 70 70 70 70 70 70 70 70 70 69 69 69 68 68 68 68 67 66 65 64 64 63 63 63 64 64 65 65 66 67 66 66 66 64 63 62 62 62
24 14 9 9 10 11 11 11 12 16 17 8 8 9 11 17 11 11 12 9 11 19 12 13 19 17 21 26 41 45 48 50 51 53 55 56 56 57 57 57 55 55 55 61 63 65 66 66 67 68 68 68 68 69 69 69 69 70 70 70 70 70 70 70 70 70 70 70 69 69 69 68 68 68 68 67 66 65 64 64 64 63 63 64 65 65 65 65 66 65 65 64 63 62 62 61 62
16 16 16 17 9 9 9 10 20 21 21 16 16 20 18 19 16 10 10 8 12 20 26 15 15 20 32 41 43 44 47 50 50 52 54 54 55 56 57 58 58 57 57 60 61 64 65 66 67 67 68 68 68 68 68 68 69 69 70 70 70 70 70 69 69 70 70 70 69 69 68 68 68 68 68 67 67 66 65 64 63 63 63 63 66 65 64 65 66 66 65 64 63 62 61 60 61
25 17 18 18 12 9 9 8 14 8 16 17 26 23 23 23 15 22 12 9 13 15 22 31 35 29 38 39 44 46 48 50 51 51 53 55 55 56 57 57 58 57 55 58 58 60 64 65 66 67 67 68 68 68 68 68 68 69 69 68 69 69 69 69 69 69 69 69 69 69 68 68 68 68 67 67 67 66 65 64 64 63 63 63 65 66 65 65 66 66 65 64 63 63 63 61 61
21 18 21 19 19 20 24 15 12 12 12 17 23 18 16 25 20 24 17 22 23 22 25 28 33 30 35 36 42 45 46 48 50 51 51 52 53 53 52 55 54 53 55 56 57 57 60 64 66 66 67 67 67 68 67 68 68 68 68 68 68 67 69 69 69 69 69 69 69 68 68 68 68 68 67 67 67 66 66 64 64 63 63 63 64 66 65 65 66 66 65 65 64 64 63 63 62
21 20 25 23 21 20 22 23 21 18 16 20 14 13 21 25 31 21 20 19 25 30 30 31 29 26 30 35 39 43 45 46 48 50 50 51 50 48 50 52 51 53 56 56 56 56 56 59 64 66 66 67 67 67 67 67 67 67 67 68 68 67 68 69 69 69 68 68 68 68 68 68 67 67 67 67 67 66 66 65 64 63 63 63 64 65 65 65 65 66 65 65 64 64 63 63 63
25 26 26 22 22 26 27 23 22 25 23 21 18 18 19 27 22 9 20 17 21 25 25 29 28 27 30 32 34 40 43 44 46 48 49 47 46 47 49 49 48 51 52 52 54 55 54 54 60 64 66 66 66 66 67 67 67 67 67 67 68 68 68 68 68 68 68 68 68 68 68 67 67 67 67 67 67 66 66 65 65 64 64 64 64 64 65 65 65 65 65 65 64 64 64 63 63
24 24 25 23 25 27 27 25 25 22 21 22 20 21 23 24 25 15 21 25 27 23 25 26 26 24 24 30 32 32 37 42 43 43 46 46 47 46 47 47 47 48 47 50 52 53 53 52 54 60 64 66 65 66 66 66 66 66 66 67 67 67 67 67 67 68 67 68 68 68 68 67 66 67 67 67 67 66 66 66 65 64 64 64 64 64 65 65 65 65 65 65 65 64 64 64 63
26 25 22 22 22 20 24 24 26 23 22 24 21 17 13 15 14 20 22 28 28 26 26 27 27 27 24 24 29 30 30 32 38 42 44 45 46 46 46 46 47 46 45 47 49 49 51 52 51 53 60 64 65 65 65 65 66 66 66 66 66 66 67 67 67 67 67 67 68 68 68 67 66 66 67 67 66 66 66 65 65 64 64 64 64 64 64 64 64 64 65 65 65 64 64 63 63
26 25 23 23 20 15 16 25 27 23 23 27 22 5 3 7 12 25 25 26 27 24 22 21 23 25 25 24 25 27 28 29 29 34 40 43 44 44 44 45 45 45 45 44 43 44 47 50 50 50 54 60 63 65 65 65 65 65 65 65 65 65 66 66 66 66 66 67 67 67 68 67 67 67 67 67 67 66 66 65 65 64 64 63 63 64 63 64 64 64 64 64 63 64 63 63 62
21 24 22 20 16 12 19 23 26 21 27 26 21 7 2 7 14 24 26 28 23 14 14 16 19 21 21 23 24 24 27 27 27 28 33 39 43 44 44 44 44 44 44 43 42 42 43 45 48 49 51 55 60 62 63 64 64 64 64 65 65 65 65 65 65 65 65 65 66 67 67 67 67 67 67 67 67 66 66 65 65 64 64 63 63 64 64 64 64 64 64 64 64 63 63 63 62
24 16 13 20 17 14 17 23 24 18 22 27 20 11 6 8 12 25 29 28 25 17 14 14 16 17 19 19 21 21 23 26 29 31 32 33 36 39 42 43 43 43 44 43 43 43 41 41 44 47 48 51 56 59 61 62 62 63 63 63 63 63 64 64 64 64 64 64 64 65 66 66 66 67 67 67 67 66 66 65 65 64 64 63 63 63 64 64 64 64 64 64 63 63 63 63 62
21 17 14 13 18 18 17 18 24 19 25 26 19 7 8 12 16 25 28 27 26 20 16 15 18 18 18 19 20 20 21 22 26 28 31 32 33 32 34 36 39 42 43 43 43 43 42 41 41 43 46 48 52 55 58 59 60 60 61 61 62 62 62 63 63 63 63 63 63 64 64 65 66 66 67 67 67 66 66 66 65 64 64 63 63 63 63 63 63 63 63 64 64 63 62 62 62
13 21 16 18 15 17 15 18 19 26 25 21 23 17 10 9 15 23 28 28 27 23 21 21 22 21 19 19 19 19 21 21 22 22 29 31 31 33 33 34 32 33 36 41 43 43 42 42 40 40 42 46 49 53 55 57 58 58 58 59 59 60 60 61 62 62 62 62 62 62 63 64 64 65 66 66 66 66 66 66 65 64 64 63 63 62 62 63 63 63 63 63 63 63 62 62 61
9 14 14 13 18 19 17 15 19 20 21 24 21 20 17 16 16 18 24 30 26 23 23 22 21 21 22 22 22 21 21 21 21 22 28 30 31 32 32 31 30 31 33 35 40 43 43 43 42 40 40 41 46 50 52 54 54 54 54 55 56 57 57 59 60 59 60 60 60 61 61 62 62 64 65 65 65 65 65 65 65 64 64 63 63 62 62 61 62 62 62 62 62 63 62 62 62
12 15 13 13 10 9 14 19 19 19 16 19 21 20 19 19 20 21 21 23 23 22 23 25 25 26 27 26 24 22 22 21 22 25 28 29 30 31 30 31 32 32 33 35 37 40 42 42 42 41 40 39 40 45 50 51 51 51 51 48 49 51 53 54 54 57 58 58 58 58 58 59 60 62 64 65 65 64 64 64 65 64 64 63 62 61 61 61 61 61 61 62 61 61 62 62 61
22 21 20 18 17 17 19 18 20 23 17 16 16 18 18 18 19 20 19 19 18 18 19 21 20 21 21 23 25 26 27 25 28 29 29 30 31 30 31 31 33 33 33 35 36 37 39 41 42 41 40 39 38 40 45 49 49 49 48 49 50 51 51 50 52 53 54 55 55 56 56 57 58 60 62 63 64 63 64 64 64 64 64 63 63 62 61 60 60 60 61 60 61 60 60 61 61
23 21 20 18 17 16 18 19 19 23 19 18 17 17 17 17 18 18 18 17 16 16 15 15 15 16 17 17 17 18 18 24 30 30 32 33 32 33 32 32 35 33 34 35 35 36 37 39 40 41 40 39 39 39 41 46 49 50 50 49 49 50 49 48 49 50 51 52 52 53 54 54 56 57 59 62 63 63 63 63 63 63 64 63 63 63 62 59 59 60 60 60 60 60 60 60 60
22 21 20 19 19 19 20 20 21 21 19 16 15 14 16 16 15 17 17 17 16 16 16 15 15 15 15 16 16 16 16 17 18 21 27 28 32 34 34 33 34 34 33 34 35 36 37 38 40 40 41 39 39 39 39 42 45 48 49 50 49 49 48 48 49 49 49 50 51 51 52 53 54 56 57 59 61 62 63 63 63 63 63 63 62 62 60 59 60 60 59 59 59 59 60 59 60
21 20 18 16 17 16 15 18 19 20 18 15 14 16 18 18 18 17 17 17 17 20 21 20 18 15 15 14 15 16 16 17 17 17 18 19 22 27 31 33 34 35 35 34 35 36 38 39 39 40 40 40 39 39 40 40 42 44 46 46 46 47 44 45 45 45 47 48 49 50 51 52 53 54 56 57 59 61 62 62 62 63 63 63 63 62 60 60 60 59 59 58 59 57 58 58 58
22 21 19 18 18 17 16 15 18 19 19 17 15 14 13 15 16 16 20 21 22 22 21 22 22 22 21 21 21 20 18 17 18 18 19 20 21 21 25 29 32 34 35 35 35 36 38 38 39 40 40 40 39 39 40 39 40 42 42 40 41 41 41 42 43 43 45 47 47 48 49 50 50 53 54 55 57 58 60 61 61 62 62 62 62 62 61 60 60 60 60 59 59 59 57 57 56
21 22 21 21 21 20 18 18 16 15 15 16 14 10 10 13 15 16 18 19 20 20 20 19 19 21 22 22 22 23 25 24 23 22 21 21 22 23 23 25 28 32 34 36 36 36 36 37 38 39 40 40 40 39 39 39 39 40 40 39 39 39 39 40 41 42 43 44 45 47 48 48 49 50 52 54 55 56 57 59 60 60 61 61 61 62 61 59 59 60 60 60 59 59 59 56 56
18 17 22 22 21 21 21 19 18 15 14 18 16 12 10 17 17 14 14 17 19 17 19 19 19 20 20 22 23 23 24 24 24 25 25 25 25 25 25 25 25 26 30 34 36 36 35 36 37 38 39 40 41 40 39 40 38 38 39 39 38 38 38 39 40 40 41 42 44 45 47 47 48 48 50 53 54 55 56 57 58 59 59 60 59 60 60 59 59 59 59 59 59 58 58 57 56
16 18 21 22 21 21 21 21 19 17 19 21 19 17 12 12 17 18 18 17 17 18 18 18 18 17 18 19 21 21 22 23 24 24 24 25 25 25 25 25 25 25 25 31 35 37 36 35 36 37 38 39 40 40 40 40 38 38 38 38 38 37 37 37 38 39 39 41 43 44 45 46 47 47 48 50 53 54 55 56 57 57 58 58 58 59 59 58 58 58 58 59 58 57 57 57 55
19 21 21 20 20 20 21 21 20 20 19 16 19 18 15 14 18 16 16 14 11 16 17 17 16 16 15 16 18 19 20 20 22 23 23 23 24 24 24 23 23 23 25 27 31 35 36 36 36 36 36 37 38 39 40 40 39 38 37 37 37 37 37 37 37 39 40 42 42 43 44 45 46 47 47 48 50 52 53 54 54 55 56 56 56 57 57 56 56 56 55 56 56 55 55 55 53
23 25 25 24 23 22 20 20 21 20 19 14 18 19 14 14 17 18 12 16 15 16 16 15 15 15 14 15 15 15 16 17 19 19 19 20 19 19 20 21 21 22 25 28 28 32 35 36 36 36 36 36 37 38 39 39 39 39 38 37 37 36 37 37 37 38 40 42 41 42 43 44 45 46 46 47 48 50 51 52 53 53 54 54 54 55 54 53 53 54 54 55 56 54 53 52 52
26 25 23 22 21 21 22 23 22 20 15 16 19 20 17 12 15 16 14 14 12 12 13 14 15 15 15 16 15 17 16 16 16 17 17 17 17 18 18 18 18 19 23 25 26 30 33 36 36 36 35 36 36 37 38 39 39 39 38 37 37 36 36 36 36 37 39 41 40 41 42 43 44 45 46 46 47 48 49 50 51 52 52 52 52 52 52 52 51 51 52 52 53 54 54 54 53
25 23 23 24 23 23 21 18 20 14 11 17 20 19 18 13 13 18 14 13 11 12 13 14 12 12 14 15 17 17 17 18 19 20 20 20 20 20 21 20 20 20 21 23 25 28 32 35 35 35 35 35 36 36 37 38 39 39 39 38 37 37 36 37 36 36 38 39 40 40 41 42 43 45 46 46 47 48 48 48 49 50 50 49 50 51 51 51 50 50 50 51 52 54 54 54 54
25 23 22 18 16 20 12 19 12 12 12 16 19 18 15 16 15 15 12 7 6 7 9 11 12 12 13 13 14 16 19 19 20 19 20 20 21 21 21 22 22 22 23 22 23 26 30 33 35 35 34 35 35 36 36 37 38 38 39 38 37 37 37 36 36 35 37 38 39 39 40 41 42 44 45 46 46 47 47 47 48 48 48 48 48 48 49 49 49 50 50 50 51 52 53 53 53
25 24 22 18 12 12 9 12 14 13 16 19 17 16 15 16 17 17 16 16 13 12 11 10 11 11 13 17 20 22 22 22 22 22 22 22 21 21 21 21 22 23 23 24 23 25 28 32 34 35 34 35 35 35 36 36 37 38 38 38 38 37 37 36 36 35 36 37 39 39 40 40 41 42 44 45 46 47 47 47 47 47 47 47 47 47 48 48 49 50 49 49 49 50 51 52 52
25 26 24 20 18 13 9 10 8 9 9 10 13 13 7 15 12 16 16 17 17 16 16 16 17 19 21 23 24 24 25 25 26 26 26 25 25 25 24 23 22 22 23 25 25 25 26 30 33 34 35 35 35 35 35 36 37 37 38 38 38 37 37 36 36 37 36 37 39 39 39 40 41 41 43 44 45 47 47 48 47 47 47 47 47 47 47 48 48 48 49 49 49 49 49 50 50
23 23 22 20 19 20 15 14 13 9 9 9 11 14 14 17 20 20 18 15 16 18 19 20 20 21 22 22 22 22 23 24 25 25 25 25 26 26 27 27 27 25 25 26 26 26 26 28 31 34 34 35 36 36 35 35 36 37 37 38 38 38 37 37 37 37 36 37 38 39 39 40 40 41 42 44 46 47 48 48 47 47 47 48 48 47 47 47 47 47 47 47 47 47 48 48 49
20 22 19 21 25 22 19 19 19 17 15 12 15 15 16 17 17 16 17 15 15 14 15 15 15 17 18 19 20 20 21 21 22 23 23 24 25 26 27 27 28 28 28 27 27 28 27 27 29 32 34 35 36 36 36 35 35 36 37 37 37 37 37 36 36 36 36 37 38 39 39 40 41 41 43 44 46 47 48 48 48 48 48 48 47 47 47 47 46 47 47 46 46 45 46 47 47
14 11 15 22 24 23 20 12 15 14 11 10 16 13 11 11 10 15 15 14 12 11 12 12 12 13 14 17 19 19 20 20 20 21 22 23 25 26 26 27 28 29 29 28 27 28 29 28 27 30 33 35 35 36 36 36 35 36 36 37 37 37 37 37 36 36 36 37 38 39 40 41 42 42 43 45 46 47 48 46 48 48 48 47 47 47 47 46 46 47 46 46 46 46 46 46 47
12 12 26 16 12 15 20 15 6 8 9 10 12 13 12 11 10 13 13 11 10 9 9 9 9 10 12 14 16 18 19 19 19 20 21 22 25 26 26 26 28 29 30 29 29 30 31 31 30 30 31 34 35 36 36 36 36 37 37 36 36 37 37 37 36 36 37 37 38 39 41 41 43 44 44 46 46 47 47 47 48 47 48 47 47 47 46 46 46 46 46 46 45 46 46 46 46
19 21 18 23 20 17 14 14 12 13 7 8 8 13 11 12 12 12 12 9 9 8 8 8 8 9 11 12 15 16 18 18 19 20 21 23 26 26 26 26 27 28 30 31 31 32 32 32 32 32 33 34 36 36 36 36 36 36 37 37 36 37 37 37 36 36 37 37 38 40 41 42 43 44 45 46 46 46 47 47 48 48 47 47 47 46 46 46 46 47 46 46 46 46 46 46 46
8 12 10 14 15 19 17 14 9 10 10 10 8 6 8 14 13 12 9 9 9 7 7 9 9 9 11 12 15 16 17 18 18 19 21 23 26 27 26 26 26 27 29 31 32 34 35 35 35 35 34 34 35 36 36 36 36 36 37 37 37 37 36 37 36 37 36 37 39 40 41 42 44 45 46 46 46 46 46 47 47 47 47 47 46 46 46 46 46 46 46 46 46 46 47 47 47
7 5 6 9 10 6 5 4 16 14 11 8 9 6 14 13 13 10 10 9 9 8 7 7 8 8 11 13 14 16 17 17 17 18 21 24 26 27 26 26 26 26 26 28 31 34 35 36 36 36 36 36 35 36 36 36 36 36 36 37 37 37 37 37 37 37 37 38 39 40 42 44 44 45 46 45 46 46 46 47 47 47 47 47 46 46 46 47 47 47 47 47 47 48 48 49 49